Flag for Netherlands Weather past 2 weeks in Eindhoven, Netherlands

Now
46 °F

Fog.


Feels Like: 46 °F
Forecast: 47 / 68 °F
Wind: 1 mph from North

Location: Eindhoven Airport


UV Index: 3 (Moderate)

Visibility: 6 mi


Pressure: 30.09 "Hg

Humidity: 100%

Dew point: 46 °F

Location of EindhovenLocation

Historic Weather in Eindhoven

°F

Eindhoven temperature yesterday

Maximum temperature yesterday: 72 °F (at 4:55 PM)
Minimum temperature yesterday: 43 °F (at 3:25 AM)
Average temperature yesterday: 57 °F

Past Weeks' High & Low Weather Summary

 TemperatureHumidityPressure
High72 °F (Apr 20, 4:25 PM)100% (Apr 9, 2:55 AM)30.45 "Hg (Apr 9, 2:55 AM)
Low30 °F (Apr 16, 3:55 AM)26% (Apr 17, 3:55 PM)29.62 "Hg (Apr 20, 5:25 PM)
Average52 °F70%30.05 "Hg
* Reported Apr 9 12:25 AM — Apr 24 12:25 AM, Eindhoven, Weather by CustomWeather, © 2014

Note: Actual official high and low records may vary slightly from our data, if they occured in-between our weather recording intervals... More about our weather records

Advertising

Historic Weather Conditions — Data for Previous 24 hours

 ConditionsComfort  
Time TempWeatherWind HumidityBarometerVisibility
12:25 AM
Apr 24
50 °FCool.No wind88%30.09 "HgN/A
11:55 PM
Apr 23
50 °FPassing clouds.3 mph88%30.09 "HgN/A
11:25 PM52 °FCool.2 mph82%30.09 "HgN/A
11:04 PM52 °FCool.1 mph82%30.09 "HgN/A
10:25 PM52 °FCool.1 mph82%30.09 "HgN/A
9:55 PM55 °FPassing clouds.1 mph72%30.09 "HgN/A
9:25 PM57 °FCool.2 mph67%30.09 "HgN/A
8:55 PM59 °FCool.1 mph68%30.07 "HgN/A
8:25 PM64 °FMild.3 mph49%30.07 "HgN/A
7:55 PM66 °FMild.2 mph46%30.07 "HgN/A
7:25 PM68 °FMild.1 mph40%30.07 "HgN/A
6:55 PM66 °FPassing clouds.1 mph46%30.07 "HgN/A
6:25 PM70 °FPassing clouds.5 mph40%30.07 "HgN/A
5:55 PM70 °FPassing clouds.6 mph40%30.07 "HgN/A
5:25 PM68 °FPartly sunny.7 mph43%30.07 "HgN/A
4:55 PM72 °FOvercast.6 mph41%30.07 "HgN/A
4:25 PM70 °FMostly cloudy.7 mph40%30.07 "HgN/A
3:55 PM70 °FPartly sunny.7 mph43%30.07 "HgN/A
3:25 PM68 °FCloudy.3 mph46%30.07 "HgN/A
2:55 PM68 °FPassing clouds.5 mph46%30.07 "HgN/A
2:25 PM68 °FMostly cloudy.5 mph49%30.09 "HgN/A
1:55 PM66 °FPartly sunny.3 mph52%30.09 "HgN/A
1:25 PM66 °FPartly sunny.5 mph52%30.09 "HgN/A
12:55 PM66 °FPassing clouds.5 mph52%30.09 "HgN/A
12:25 PM66 °FScattered clouds.6 mph52%30.09 "HgN/A
11:55 AM66 °FPassing clouds.2 mph56%30.09 "HgN/A
11:25 AM63 °FMild.3 mph64%30.09 "HgN/A
10:55 AM63 °FMild.5 mph64%30.09 "HgN/A
10:25 AM61 °FCool.2 mph72%30.09 "HgN/A
9:55 AM59 °FCool.3 mph77%30.09 "HgN/A
9:25 AM57 °FPassing clouds.2 mph77%30.07 "HgN/A
8:55 AM54 °FFog.3 mph88%30.07 "Hg6 mi
8:25 AM52 °FFog.2 mph94%30.07 "Hg4 mi
7:55 AM48 °FFog.2 mph100%30.07 "Hg2 mi
7:25 AM48 °FFog.1 mph100%30.07 "Hg3 mi
6:59 AM48 °FPartly cloudy.2 mph100%30.07 "Hg3 mi
6:55 AM48 °FPartly cloudy.2 mph94%30.07 "Hg3 mi
6:25 AM46 °FPassing clouds.2 mph100%30.04 "Hg3 mi
5:55 AM45 °FFog.1 mph100%30.04 "Hg3 mi
5:25 AM45 °FFog.3 mph100%30.04 "Hg2 mi
4:55 AM45 °FFog.3 mph100%30.04 "Hg5 mi
4:25 AM45 °FFog.No wind100%30.04 "Hg2 mi
3:55 AM45 °FQuite cool.2 mph100%30.04 "HgN/A
3:25 AM43 °FFog.2 mph100%30.01 "Hg6 mi
2:55 AM45 °FPassing clouds.2 mph93%30.04 "HgN/A
2:25 AM46 °FFog.1 mph93%30.01 "Hg4 mi
1:55 AM46 °FCool.2 mph93%30.01 "HgN/A
1:25 AM48 °FOvercast.No wind94%30.01 "HgN/A
Weather by CustomWeather, © 2014

See weather overview